Logan, UT

12:04 PM MST on November 15, 2019 (GMT -0700)
Logan-Cache

Weather History for KLGU - August, 2019

Change the Weather History Date:

Friday, August 2, 2019

  Actual Average Record
Temperature  
Mean Temperature 73 °F -  
Max Temperature 93 °F 89 °F 99 °F (2000)
Min Temperature 53 °F 55 °F 46 °F (1975)
Cooling Degree Days 8    
Growing Degree Days 23 (Base 50)    
Moisture  
Dew Point 50 °F    
Average Humidity 48    
Maximum Humidity 86    
Minimum Humidity 18    
Precipitation  
Precipitation 0.00 in - - ()
Sea Level Pressure  
Sea Level Pressure 29.99 in    
Wind  
Wind Speed 4 mph (SW)    
Max Wind Speed 9 mph    
Max Gust Speed -    
Visibility 10 miles    
Events      
Averages and records for this station are not official NWS values.
T = Trace of Precipitation, MM = Missing Value Source: NWS Daily Summary

Daily Weather History Graph

Daily Weather History Graph

Search for Another Location

Airport or City:

Astronomy

Aug. 02, 2019 Rise Set
Actual Time 6:22 AM MDT 8:44 PM MDT
Civil Twilight 5:50 AM MDT 9:15 PM MDT
Nautical Twilight 5:12 AM MDT 9:54 PM MDT
Astronomical Twilight 4:28 AM MDT 10:37 PM MDT
Moon 8:06 AM MDT (8/2) 10:13 PM MDT (8/2)
Length of Visible Light 15h 24m
Length of Day
14h 22m
Waxing Crescent, 4% of the Moon is Illuminated
Aug 2
Waxing Crescent
Aug 7
First Quarter
Aug 15
Full
Aug 23
Last Quarter
Aug 30
New

Hourly Weather History & Observations

Time (MDT) Temp. Heat Index Dew Point Humidity Pressure Visibility Wind Dir Wind Speed Gust Speed Precip Events Conditions
1:51 AM 64.9 °F - 51.1 °F 61% 30.02 in 10.0 mi East 3.5 mph - N/A   Clear
2:51 AM 60.1 °F - 50.0 °F 69% 30.02 in 10.0 mi SE 3.5 mph - N/A   Clear
3:51 AM 59.0 °F - 50.0 °F 72% 30.01 in 10.0 mi Variable 4.6 mph - N/A   Clear
4:51 AM 55.9 °F - 48.9 °F 77% 30.04 in 10.0 mi WNW 5.8 mph - N/A   Clear
5:51 AM 54.0 °F - 48.9 °F 83% 30.04 in 10.0 mi NW 4.6 mph - N/A   Clear
6:51 AM 53.1 °F - 48.9 °F 86% 30.06 in 10.0 mi Calm Calm - N/A   Clear
7:51 AM 61.0 °F - 52.0 °F 72% 30.06 in 10.0 mi West 3.5 mph - N/A   Clear
8:51 AM 66.0 °F - 52.0 °F 60% 30.08 in 10.0 mi North 5.8 mph - N/A   Clear
9:51 AM 71.1 °F - 52.0 °F 51% 30.07 in 10.0 mi Calm Calm - N/A   Clear
10:51 AM 75.0 °F - 53.1 °F 46% 30.06 in 10.0 mi Calm Calm - N/A   Clear
11:51 AM 80.1 °F - 51.1 °F 36% 30.04 in 10.0 mi Calm Calm - N/A   Clear
12:51 PM 86.0 °F - 52.0 °F 31% 30.01 in 10.0 mi NE 5.8 mph - N/A   Clear
1:51 PM 89.1 °F 86.9 °F 54.0 °F 30% 29.99 in 10.0 mi West 5.8 mph - N/A   Clear
2:51 PM 91.0 °F - 50.0 °F 24% 29.97 in 10.0 mi Variable 3.5 mph - N/A   Clear
3:51 PM 91.9 °F - 46.9 °F 21% 29.95 in 10.0 mi SSE 3.5 mph - N/A   Clear
4:51 PM 91.9 °F - 45.0 °F 20% 29.94 in 10.0 mi SW 5.8 mph - N/A   Clear
5:51 PM 93.0 °F - 46.9 °F 20% 29.93 in 10.0 mi SSW 6.9 mph - N/A   Clear
6:51 PM 91.9 °F - 43.0 °F 18% 29.92 in 10.0 mi WSW 9.2 mph - N/A   Clear
7:51 PM 89.1 °F - 46.9 °F 23% 29.91 in 10.0 mi SSW 4.6 mph - N/A   Clear
8:51 PM 82.9 °F - 51.1 °F 33% 29.91 in 10.0 mi ESE 3.5 mph - N/A   Clear
9:51 PM 75.0 °F - 55.0 °F 50% 29.93 in 10.0 mi WSW 6.9 mph - N/A   Clear
10:51 PM 71.1 °F - 53.1 °F 53% 29.94 in 10.0 mi Calm Calm - N/A   Clear
11:51 PM 64.9 °F - 52.0 °F 63% 29.95 in 10.0 mi Calm Calm - N/A   Clear